Time,TemperatureF,DewpointF,PressureIn,WindDirection,WindDirectionDegrees,WindSpeedMPH,WindSpeedGustMPH,Humidity,HourlyPrecipIn,Conditions,Clouds,dailyrainin,SoftwareType,DateUTC
2013-03-22 00:00:00,24.4,8.4,29.68,NW,310,5.8,5.8,50,0.00,CLR,,0.00,WeatherDisplay:10.37,2013-03-22 04:00:00,
2013-03-22 00:01:00,24.4,8.4,29.67,NW,310,5.8,0.0,50,0.00,CLR,,0.00,WeatherDisplay:10.37,2013-03-22 04:01:00,
2013-03-22 00:07:00,24.4,8.4,29.67,NW,310,0.0,0.0,50,0.00,CLR,,0.00,WeatherDisplay:10.37,2013-03-22 04:07:00,
2013-03-22 00:12:00,24.4,8.9,29.67,NW,310,0.0,0.0,51,0.00,CLR,,0.00,WeatherDisplay:10.37,2013-03-22 04:12:00,
2013-03-22 00:17:00,24.4,8.4,29.68,NW,310,0.0,0.0,50,0.00,CLR,,0.00,WeatherDisplay:10.37,2013-03-22 04:17:00,
2013-03-22 00:22:00,24.1,8.1,29.68,NW,310,0.0,0.0,50,0.00,CLR,,0.00,WeatherDisplay:10.37,2013-03-22 04:22:00,
2013-03-22 00:27:00,23.9,7.9,29.67,NW,310,0.0,0.0,50,0.00,CLR,,0.00,WeatherDisplay:10.37,2013-03-22 04:27:00,
2013-03-22 00:32:00,24.1,8.5,29.68,NW,310,0.0,0.0,51,0.00,CLR,,0.00,WeatherDisplay:10.37,2013-03-22 04:32:00,
2013-03-22 00:37:00,24.1,8.5,29.68,NW,310,0.0,0.0,51,0.00,CLR,,0.00,WeatherDisplay:10.37,2013-03-22 04:37:00,
2013-03-22 00:42:00,24.1,8.5,29.68,NW,310,0.0,0.0,51,0.00,CLR,,0.00,WeatherDisplay:10.37,2013-03-22 04:42:00,
2013-03-22 00:47:00,24.1,8.5,29.68,NW,310,0.0,0.0,51,0.00,CLR,,0.00,WeatherDisplay:10.37,2013-03-22 04:47:00,
2013-03-22 00:52:00,24.1,8.5,29.68,NW,310,0.0,0.0,51,0.00,CLR,,0.00,WeatherDisplay:10.37,2013-03-22 04:52:00,
2013-03-22 00:57:00,24.1,8.5,29.68,NW,310,0.0,0.0,51,0.00,CLR,,0.00,WeatherDisplay:10.37,2013-03-22 04:57:00,
2013-03-22 01:02:00,24.1,8.5,29.68,NW,310,0.0,0.0,51,0.00,CLR,,0.00,WeatherDisplay:10.37,2013-03-22 05:02:00,
2013-03-22 01:07:00,24.1,8.5,29.68,NW,310,0.0,0.0,51,0.00,CLR,,0.00,WeatherDisplay:10.37,2013-03-22 05:07:00,
2013-03-22 01:12:00,24.4,8.9,29.68,NW,310,0.0,0.0,51,0.00,CLR,,0.00,WeatherDisplay:10.37,2013-03-22 05:12:00,
2013-03-22 01:17:00,24.4,8.9,29.68,NW,310,0.0,0.0,51,0.00,CLR,,0.00,WeatherDisplay:10.37,2013-03-22 05:17:00,
2013-03-22 01:22:00,24.4,8.9,29.68,NW,310,0.0,0.0,51,0.00,CLR,,0.00,WeatherDisplay:10.37,2013-03-22 05:22:00,
2013-03-22 01:27:00,24.4,8.9,29.68,NW,310,0.0,0.0,51,0.00,CLR,,0.00,WeatherDisplay:10.37,2013-03-22 05:27:00,
2013-03-22 01:32:00,24.6,9.0,29.68,NW,310,0.0,0.0,51,0.00,CLR,,0.00,WeatherDisplay:10.37,2013-03-22 05:32:00,
2013-03-22 01:37:00,24.6,9.0,29.68,NW,310,0.0,0.0,51,0.00,CLR,,0.00,WeatherDisplay:10.37,2013-03-22 05:37:00,
2013-03-22 01:42:00,24.6,9.0,29.68,NW,310,0.0,0.0,51,0.00,CLR,,0.00,WeatherDisplay:10.37,2013-03-22 05:42:00,
2013-03-22 01:47:00,24.4,8.9,29.68,NW,310,0.0,0.0,51,0.00,CLR,,0.00,WeatherDisplay:10.37,2013-03-22 05:47:00,
2013-03-22 01:52:00,24.4,8.9,29.69,NW,310,0.0,0.0,51,0.00,CLR,,0.00,WeatherDisplay:10.37,2013-03-22 05:52:00,
2013-03-22 01:57:00,24.4,8.9,29.68,NW,310,0.0,0.0,51,0.00,CLR,,0.00,WeatherDisplay:10.37,2013-03-22 05:57:00,
2013-03-22 02:02:00,24.4,8.9,29.68,NW,310,0.0,0.0,51,0.00,CLR,,0.00,WeatherDisplay:10.37,2013-03-22 06:02:00,
2013-03-22 02:07:00,24.4,8.9,29.68,NW,310,0.0,0.0,51,0.00,CLR,,0.00,WeatherDisplay:10.37,2013-03-22 06:07:00,
2013-03-22 02:12:00,24.4,8.9,29.68,West,270,4.6,4.6,51,0.00,CLR,,0.00,WeatherDisplay:10.37,2013-03-22 06:12:00,
2013-03-22 02:17:00,24.3,8.7,29.69,West,270,4.6,4.6,51,0.00,CLR,,0.00,WeatherDisplay:10.37,2013-03-22 06:17:00,
2013-03-22 02:22:00,24.4,9.3,29.69,West,270,4.6,4.6,52,0.00,CLR,,0.00,WeatherDisplay:10.37,2013-03-22 06:22:00,
2013-03-22 02:27:00,24.1,9.0,29.69,West,270,4.6,4.6,52,0.00,CLR,,0.00,WeatherDisplay:10.37,2013-03-22 06:27:00,
2013-03-22 02:32:00,24.1,9.0,29.69,SSW,210,4.6,4.6,52,0.00,CLR,,0.00,WeatherDisplay:10.37,2013-03-22 06:32:00,
2013-03-22 02:37:00,24.1,9.0,29.68,SSW,210,4.6,4.6,52,0.00,CLR,,0.00,WeatherDisplay:10.37,2013-03-22 06:37:00,
2013-03-22 02:43:00,24.1,9.4,29.68,West,260,4.6,4.6,53,0.00,CLR,,0.00,WeatherDisplay:10.37,2013-03-22 06:43:00,
2013-03-22 02:48:00,24.1,9.4,29.68,West,260,4.6,4.6,53,0.00,CLR,,0.00,WeatherDisplay:10.37,2013-03-22 06:48:00,
2013-03-22 02:53:00,24.1,9.4,29.68,West,260,4.6,4.6,53,0.00,CLR,,0.00,WeatherDisplay:10.37,2013-03-22 06:53:00,
2013-03-22 02:58:00,24.4,9.7,29.68,West,260,4.6,4.6,53,0.00,CLR,,0.00,WeatherDisplay:10.37,2013-03-22 06:58:00,
2013-03-22 03:03:00,24.4,9.7,29.69,West,260,4.6,4.6,53,0.00,CLR,,0.00,WeatherDisplay:10.37,2013-03-22 07:03:00,
2013-03-22 03:08:00,24.4,9.7,29.69,West,260,4.6,4.6,53,0.00,CLR,,0.00,WeatherDisplay:10.37,2013-03-22 07:08:00,
2013-03-22 03:13:00,24.4,9.7,29.68,West,260,4.6,0.0,53,0.00,CLR,,0.00,WeatherDisplay:10.37,2013-03-22 07:13:00,
2013-03-22 05:50:00,25.0,11.1,29.68,North,0,0.0,0.0,55,0.00,CLR,,0.00,WeatherDisplay:10.37,2013-03-22 09:50:00,
2013-03-22 05:55:00,25.2,11.2,29.68,North,0,0.0,0.0,55,0.00,CLR,,0.00,WeatherDisplay:10.37,2013-03-22 09:55:00,
2013-03-22 06:00:00,25.2,11.2,29.68,North,0,0.0,0.0,55,0.00,CLR,,0.00,WeatherDisplay:10.37,2013-03-22 10:00:00,
2013-03-22 06:05:00,25.0,11.1,29.68,SW,230,4.6,4.6,55,0.00,SCT,,0.00,WeatherDisplay:10.37,2013-03-22 10:05:00,
2013-03-22 06:10:00,25.0,11.1,29.68,SW,230,4.6,4.6,55,0.00,SCT,,0.00,WeatherDisplay:10.37,2013-03-22 10:10:00,
2013-03-22 06:15:00,24.6,10.7,29.68,SW,230,4.6,4.6,55,0.00,SCT,,0.00,WeatherDisplay:10.37,2013-03-22 10:15:00,
2013-03-22 06:20:00,25.0,11.1,29.68,SW,230,4.6,4.6,55,0.00,SCT,,0.00,WeatherDisplay:10.37,2013-03-22 10:20:00,
2013-03-22 06:25:00,25.0,11.1,29.69,SW,230,4.6,4.6,55,0.00,SCT,,0.00,WeatherDisplay:10.37,2013-03-22 10:25:00,
2013-03-22 06:30:00,24.8,10.9,29.69,SW,230,4.6,4.6,55,0.00,SCT,,0.00,WeatherDisplay:10.37,2013-03-22 10:30:00,
2013-03-22 06:35:00,24.8,10.9,29.68,SW,230,4.6,4.6,55,0.00,SCT,,0.00,WeatherDisplay:10.37,2013-03-22 10:35:00,
2013-03-22 06:40:00,24.6,10.7,29.69,SW,230,4.6,4.6,55,0.00,SCT,,0.00,WeatherDisplay:10.37,2013-03-22 10:40:00,
2013-03-22 06:45:00,24.6,10.7,29.69,SW,230,4.6,4.6,55,0.00,SCT,,0.00,WeatherDisplay:10.37,2013-03-22 10:45:00,
2013-03-22 06:50:00,24.6,10.7,29.69,SW,230,4.6,4.6,55,0.00,SCT,,0.00,WeatherDisplay:10.37,2013-03-22 10:50:00,
2013-03-22 06:55:00,24.6,10.7,29.69,WSW,240,4.6,4.6,55,0.00,SCT,,0.00,WeatherDisplay:10.37,2013-03-22 10:55:00,
2013-03-22 07:00:00,24.4,10.6,29.69,WSW,240,4.6,4.6,55,0.00,SCT,,0.00,WeatherDisplay:10.37,2013-03-22 11:00:00,
2013-03-22 07:05:00,24.1,10.2,29.69,WSW,240,4.6,4.6,55,0.00,CLR,,0.00,WeatherDisplay:10.37,2013-03-22 11:05:00,
2013-03-22 07:10:00,24.1,10.2,29.70,WSW,240,4.6,4.6,55,0.00,CLR,,0.00,WeatherDisplay:10.37,2013-03-22 11:10:00,
2013-03-22 07:15:00,24.4,10.6,29.70,WSW,240,4.6,4.6,55,0.00,CLR,,0.00,WeatherDisplay:10.37,2013-03-22 11:15:00,
2013-03-22 07:20:00,24.4,10.6,29.70,WSW,240,4.6,4.6,55,0.00,CLR,,0.00,WeatherDisplay:10.37,2013-03-22 11:20:00,
2013-03-22 07:25:00,24.4,10.6,29.70,SW,230,4.6,4.6,55,0.00,CLR,,0.00,WeatherDisplay:10.37,2013-03-22 11:25:00,
2013-03-22 07:30:00,24.4,11.0,29.70,SW,230,4.6,4.6,56,0.00,CLR,,0.00,WeatherDisplay:10.37,2013-03-22 11:30:00,
2013-03-22 07:35:00,24.4,11.0,29.70,SW,230,4.6,4.6,56,0.00,CLR,,0.00,WeatherDisplay:10.37,2013-03-22 11:35:00,
2013-03-22 07:40:00,24.4,10.6,29.70,SW,230,4.6,4.6,55,0.00,CLR,,0.00,WeatherDisplay:10.37,2013-03-22 11:40:00,
2013-03-22 07:45:00,24.4,11.0,29.70,SW,230,4.6,4.6,56,0.00,CLR,,0.00,WeatherDisplay:10.37,2013-03-22 11:45:00,
2013-03-22 07:50:00,24.6,11.1,29.70,SW,230,4.6,4.6,56,0.00,CLR,,0.00,WeatherDisplay:10.37,2013-03-22 11:50:00,
2013-03-22 07:55:00,25.2,11.2,29.71,WSW,240,3.5,3.5,55,0.00,CLR,,0.00,WeatherDisplay:10.37,2013-03-22 11:55:00,
2013-03-22 08:00:00,25.3,11.4,29.70,WSW,240,3.5,3.5,55,0.00,CLR,,0.00,WeatherDisplay:10.37,2013-03-22 12:00:00,
2013-03-22 08:05:00,25.5,11.6,29.71,WSW,240,3.5,3.5,55,0.00,CLR,,0.00,WeatherDisplay:10.37,2013-03-22 12:05:00,
2013-03-22 08:10:00,25.9,11.9,29.71,WSW,240,3.5,3.5,55,0.00,CLR,,0.00,WeatherDisplay:10.37,2013-03-22 12:10:00,
2013-03-22 08:15:00,26.2,12.2,29.71,WSW,240,0.0,0.0,55,0.00,CLR,,0.00,WeatherDisplay:10.37,2013-03-22 12:15:00,
2013-03-22 08:20:00,26.2,11.8,29.72,WSW,240,0.0,0.0,54,0.00,CLR,,0.00,WeatherDisplay:10.37,2013-03-22 12:20:00,
2013-03-22 08:25:00,26.2,11.8,29.71,WSW,240,0.0,0.0,54,0.00,CLR,,0.00,WeatherDisplay:10.37,2013-03-22 12:25:00,
2013-03-22 08:30:00,26.8,12.3,29.72,WSW,240,0.0,0.0,54,0.00,CLR,,0.00,WeatherDisplay:10.37,2013-03-22 12:30:00,
2013-03-22 08:35:00,27.1,12.7,29.72,South,180,3.5,3.5,54,0.00,CLR,,0.00,WeatherDisplay:10.37,2013-03-22 12:35:00,
2013-03-22 08:40:00,27.1,12.7,29.72,South,180,3.5,3.5,54,0.00,CLR,,0.00,WeatherDisplay:10.37,2013-03-22 12:40:00,
2013-03-22 08:45:00,27.5,13.0,29.72,South,180,3.5,3.5,54,0.00,CLR,,0.00,WeatherDisplay:10.37,2013-03-22 12:45:00,
2013-03-22 08:50:00,27.5,12.6,29.72,South,180,3.5,3.5,53,0.00,CLR,,0.00,WeatherDisplay:10.37,2013-03-22 12:50:00,
2013-03-22 08:55:00,27.7,13.2,29.72,SW,220,6.9,6.9,54,0.00,CLR,,0.00,WeatherDisplay:10.37,2013-03-22 12:55:00,
2013-03-22 09:00:00,27.7,12.8,29.72,SW,220,6.9,6.9,53,0.00,CLR,,0.00,WeatherDisplay:10.37,2013-03-22 13:00:00,
2013-03-22 09:05:00,28.0,13.1,29.72,SW,220,6.9,6.9,53,0.00,CLR,,0.00,WeatherDisplay:10.37,2013-03-22 13:05:00,
2013-03-22 09:10:00,28.2,13.3,29.71,SW,220,6.9,6.9,53,0.00,CLR,,0.00,WeatherDisplay:10.37,2013-03-22 13:10:00,
2013-03-22 09:15:00,28.8,13.8,29.71,WSW,250,4.6,4.6,53,0.00,CLR,,0.00,WeatherDisplay:10.37,2013-03-22 13:15:00,
2013-03-22 09:20:00,28.9,13.5,29.72,WSW,250,4.6,4.6,52,0.00,CLR,,0.00,WeatherDisplay:10.37,2013-03-22 13:20:00,
2013-03-22 09:25:00,28.8,13.3,29.71,West,260,5.8,5.8,52,0.00,CLR,,0.00,WeatherDisplay:10.37,2013-03-22 13:25:00,
2013-03-22 09:30:00,29.1,13.7,29.72,West,260,5.8,5.8,52,0.00,CLR,,0.00,WeatherDisplay:10.37,2013-03-22 13:30:00,
2013-03-22 09:35:00,30.0,14.5,29.72,West,260,5.8,5.8,52,0.00,CLR,,0.00,WeatherDisplay:10.37,2013-03-22 13:35:00,
2013-03-22 09:40:00,30.0,14.1,29.72,West,260,5.8,5.8,51,0.00,CLR,,0.00,WeatherDisplay:10.37,2013-03-22 13:40:00,
2013-03-22 09:45:00,30.0,13.6,29.72,West,260,5.8,5.8,50,0.00,CLR,,0.00,WeatherDisplay:10.37,2013-03-22 13:45:00,
2013-03-22 09:50:00,30.4,14.4,29.72,West,260,5.8,5.8,51,0.00,CLR,,0.00,WeatherDisplay:10.37,2013-03-22 13:50:00,
2013-03-22 09:55:00,31.1,14.6,29.72,SW,230,8.1,8.1,50,0.00,CLR,,0.00,WeatherDisplay:10.37,2013-03-22 13:55:00,
2013-03-22 10:00:00,31.3,14.3,29.72,SW,230,8.1,8.1,49,0.00,CLR,,0.00,WeatherDisplay:10.37,2013-03-22 14:00:00,
2013-03-22 10:05:00,32.2,15.1,29.72,SW,230,8.1,8.1,49,0.00,CLR,,0.00,WeatherDisplay:10.37,2013-03-22 14:05:00,
2013-03-22 10:10:00,32.5,15.5,29.72,SW,230,8.1,8.1,49,0.00,CLR,,0.00,WeatherDisplay:10.37,2013-03-22 14:10:00,
2013-03-22 10:15:00,32.4,14.8,29.71,SW,220,8.1,8.1,48,0.00,CLR,,0.00,WeatherDisplay:10.37,2013-03-22 14:15:00,
2013-03-22 10:20:00,32.7,15.2,29.71,SW,220,8.1,8.1,48,0.00,CLR,,0.00,WeatherDisplay:10.37,2013-03-22 14:20:00,
2013-03-22 10:25:00,33.4,15.8,29.71,WSW,240,6.9,6.9,48,0.00,CLR,,0.00,WeatherDisplay:10.37,2013-03-22 14:25:00,
2013-03-22 10:30:00,33.6,15.5,29.71,WSW,240,6.9,6.9,47,0.00,CLR,,0.00,WeatherDisplay:10.37,2013-03-22 14:30:00,
2013-03-22 10:35:00,33.4,15.3,29.71,WSW,240,6.9,6.9,47,0.00,CLR,,0.00,WeatherDisplay:10.37,2013-03-22 14:35:00,
2013-03-22 10:40:00,33.4,15.3,29.71,WSW,240,6.9,6.9,47,0.00,CLR,,0.00,WeatherDisplay:10.37,2013-03-22 14:40:00,
2013-03-22 10:45:00,34.3,16.2,29.71,WSW,250,6.9,6.9,47,0.00,CLR,,0.00,WeatherDisplay:10.37,2013-03-22 14:45:00,
2013-03-22 10:50:00,34.3,15.7,29.71,WSW,250,6.9,6.9,46,0.00,CLR,,0.00,WeatherDisplay:10.37,2013-03-22 14:50:00,
2013-03-22 10:55:00,34.7,16.0,29.71,WSW,250,6.9,6.9,46,0.00,CLR,,0.00,WeatherDisplay:10.37,2013-03-22 14:55:00,
2013-03-22 11:00:00,34.7,16.0,29.71,WSW,250,6.9,6.9,46,0.00,CLR,,0.00,WeatherDisplay:10.37,2013-03-22 15:00:00,
2013-03-22 11:05:00,34.7,16.0,29.71,West,280,6.9,6.9,46,0.00,CLR,,0.00,WeatherDisplay:10.37,2013-03-22 15:05:00,
2013-03-22 11:10:00,35.4,16.2,29.71,West,280,6.9,6.9,45,0.00,CLR,,0.00,WeatherDisplay:10.37,2013-03-22 15:10:00,
2013-03-22 11:15:00,35.2,16.0,29.71,West,280,6.9,6.9,45,0.00,CLR,,0.00,WeatherDisplay:10.37,2013-03-22 15:15:00,
2013-03-22 11:20:00,36.1,16.8,29.71,West,280,6.9,6.9,45,0.00,CLR,,0.00,WeatherDisplay:10.37,2013-03-22 15:20:00,
2013-03-22 11:25:00,36.5,17.1,29.71,WNW,290,8.1,8.1,45,0.00,CLR,,0.00,WeatherDisplay:10.37,2013-03-22 15:25:00,
2013-03-22 11:30:00,37.2,17.8,29.71,WNW,290,8.1,8.1,45,0.00,CLR,,0.00,WeatherDisplay:10.37,2013-03-22 15:30:00,
2013-03-22 11:35:00,37.9,17.9,29.70,WNW,290,8.1,8.1,44,0.00,CLR,,0.00,WeatherDisplay:10.37,2013-03-22 15:35:00,
2013-03-22 11:40:00,38.1,17.6,29.70,WNW,290,8.1,8.1,43,0.00,CLR,,0.00,WeatherDisplay:10.37,2013-03-22 15:40:00,
2013-03-22 11:45:00,38.5,17.9,29.70,West,270,9.2,9.2,43,0.00,CLR,,0.00,WeatherDisplay:10.37,2013-03-22 15:45:00,
2013-03-22 11:50:00,38.8,18.2,29.70,West,270,9.2,9.2,43,0.00,CLR,,0.00,WeatherDisplay:10.37,2013-03-22 15:50:00,
2013-03-22 11:55:00,39.0,18.4,29.70,West,270,9.2,9.2,43,0.00,CLR,,0.00,WeatherDisplay:10.37,2013-03-22 15:55:00,
2013-03-22 12:00:00,40.1,18.8,29.69,West,270,9.2,9.2,42,0.00,CLR,,0.00,WeatherDisplay:10.37,2013-03-22 16:00:00,
2013-03-22 12:05:00,40.1,17.7,29.70,WNW,300,18.4,18.4,40,0.00,CLR,,0.00,WeatherDisplay:10.37,2013-03-22 16:05:00,
2013-03-22 12:10:00,40.6,18.2,29.69,WNW,300,18.4,18.4,40,0.00,CLR,,0.00,WeatherDisplay:10.37,2013-03-22 16:10:00,
2013-03-22 12:15:00,41.2,18.7,29.69,WNW,300,18.4,18.4,40,0.00,CLR,,0.00,WeatherDisplay:10.37,2013-03-22 16:15:00,
2013-03-22 12:20:00,41.5,18.4,29.69,WNW,300,18.4,18.4,39,0.00,CLR,,0.00,WeatherDisplay:10.37,2013-03-22 16:20:00,
2013-03-22 12:25:00,41.7,18.5,29.69,West,280,6.9,6.9,39,0.00,CLR,,0.00,WeatherDisplay:10.37,2013-03-22 16:25:00,
2013-03-22 12:30:00,42.1,18.9,29.69,West,280,6.9,6.9,39,0.00,CLR,,0.00,WeatherDisplay:10.37,2013-03-22 16:30:00,
2013-03-22 12:35:00,42.6,18.8,29.69,West,280,6.9,6.9,38,0.00,CLR,,0.00,WeatherDisplay:10.37,2013-03-22 16:35:00,
2013-03-22 12:40:00,42.1,17.6,29.69,West,280,6.9,6.9,37,0.00,CLR,,0.00,WeatherDisplay:10.37,2013-03-22 16:40:00,
2013-03-22 12:45:00,41.7,17.3,29.69,WNW,290,8.1,8.1,37,0.00,CLR,,0.00,WeatherDisplay:10.37,2013-03-22 16:45:00,
2013-03-22 12:50:00,42.4,18.0,29.69,WNW,290,8.1,8.1,37,0.00,CLR,,0.00,WeatherDisplay:10.37,2013-03-22 16:50:00,
2013-03-22 12:55:00,42.4,18.0,29.69,WNW,290,8.1,8.1,37,0.00,CLR,,0.00,WeatherDisplay:10.37,2013-03-22 16:55:00,
2013-03-22 13:00:00,43.0,18.5,29.69,WNW,290,8.1,8.1,37,0.00,CLR,,0.00,WeatherDisplay:10.37,2013-03-22 17:00:00,
2013-03-22 13:05:00,43.3,18.1,29.69,WNW,290,8.1,8.1,36,0.00,CLR,,0.00,WeatherDisplay:10.37,2013-03-22 17:05:00,
2013-03-22 13:10:00,43.3,18.1,29.68,WNW,290,8.1,8.1,36,0.00,CLR,,0.00,WeatherDisplay:10.37,2013-03-22 17:10:00,
2013-03-22 13:15:00,43.0,17.8,29.68,SW,230,11.5,11.5,36,0.00,CLR,,0.00,WeatherDisplay:10.37,2013-03-22 17:15:00,
2013-03-22 13:20:00,43.2,17.3,29.68,SW,230,11.5,11.5,35,0.00,CLR,,0.00,WeatherDisplay:10.37,2013-03-22 17:20:00,
2013-03-22 13:25:00,43.5,17.6,29.68,SW,230,11.5,11.5,35,0.00,CLR,,0.00,WeatherDisplay:10.37,2013-03-22 17:25:00,
2013-03-22 13:30:00,44.2,18.3,29.68,SW,230,11.5,11.5,35,0.00,CLR,,0.00,WeatherDisplay:10.37,2013-03-22 17:30:00,
2013-03-22 13:35:00,45.0,18.9,29.67,WSW,250,20.7,20.7,35,0.00,CLR,,0.00,WeatherDisplay:10.37,2013-03-22 17:35:00,
2013-03-22 13:40:00,44.4,18.4,29.67,WSW,250,20.7,20.7,35,0.00,CLR,,0.00,WeatherDisplay:10.37,2013-03-22 17:40:00,
2013-03-22 13:45:00,45.1,18.4,29.67,WSW,250,20.7,20.7,34,0.00,CLR,,0.00,WeatherDisplay:10.37,2013-03-22 17:45:00,
2013-03-22 13:50:00,45.0,18.2,29.67,WSW,250,20.7,20.7,34,0.00,CLR,,0.00,WeatherDisplay:10.37,2013-03-22 17:50:00,
2013-03-22 13:55:00,44.4,17.8,29.67,WSW,240,6.9,6.9,34,0.00,CLR,,0.00,WeatherDisplay:10.37,2013-03-22 17:55:00,
2013-03-22 14:00:00,44.4,17.8,29.67,WSW,240,6.9,6.9,34,0.00,CLR,,0.00,WeatherDisplay:10.37,2013-03-22 18:00:00,
2013-03-22 14:05:00,44.4,17.8,29.67,WSW,240,6.9,6.9,34,0.00,CLR,,0.00,WeatherDisplay:10.37,2013-03-22 18:05:00,
2013-03-22 14:10:00,45.5,19.4,29.66,WSW,240,6.9,6.9,35,0.00,CLR,,0.00,WeatherDisplay:10.37,2013-03-22 18:10:00,
2013-03-22 14:15:00,46.0,19.9,29.66,WNW,300,18.4,18.4,35,0.00,CLR,,0.00,WeatherDisplay:10.37,2013-03-22 18:15:00,
2013-03-22 14:20:00,45.7,18.2,29.66,WNW,300,18.4,18.4,33,0.00,CLR,,0.00,WeatherDisplay:10.37,2013-03-22 18:20:00,
2013-03-22 14:25:00,46.0,18.5,29.66,WNW,300,18.4,18.4,33,0.00,CLR,,0.00,WeatherDisplay:10.37,2013-03-22 18:25:00,
2013-03-22 14:30:00,46.0,18.5,29.66,WNW,300,18.4,18.4,33,0.00,CLR,,0.00,WeatherDisplay:10.37,2013-03-22 18:30:00,
2013-03-22 14:35:00,45.7,18.9,29.66,West,280,19.6,19.6,34,0.00,CLR,,0.00,WeatherDisplay:10.37,2013-03-22 18:35:00,
2013-03-22 14:40:00,45.7,18.2,29.66,West,280,19.6,19.6,33,0.00,CLR,,0.00,WeatherDisplay:10.37,2013-03-22 18:40:00,
2013-03-22 14:45:00,45.9,18.3,29.65,West,280,19.6,19.6,33,0.00,CLR,,0.00,WeatherDisplay:10.37,2013-03-22 18:45:00,
2013-03-22 14:50:00,46.8,19.1,29.66,West,280,19.6,19.6,33,0.00,CLR,,0.00,WeatherDisplay:10.37,2013-03-22 18:50:00,
2013-03-22 14:55:00,47.1,19.5,29.65,WNW,290,18.4,18.4,33,0.00,CLR,,0.00,WeatherDisplay:10.37,2013-03-22 18:55:00,
2013-03-22 15:00:00,46.0,18.5,29.65,WNW,290,18.4,18.4,33,0.00,CLR,,0.00,WeatherDisplay:10.37,2013-03-22 19:00:00,
2013-03-22 15:05:00,46.9,19.3,29.65,WNW,290,18.4,18.4,33,0.00,CLR,,0.00,WeatherDisplay:10.37,2013-03-22 19:05:00,
2013-03-22 15:10:00,46.2,17.9,29.65,WNW,290,18.4,18.4,32,0.00,CLR,,0.00,WeatherDisplay:10.37,2013-03-22 19:10:00,
2013-03-22 15:15:00,46.2,18.7,29.65,West,260,23.0,23.0,33,0.00,CLR,,0.00,WeatherDisplay:10.37,2013-03-22 19:15:00,
2013-03-22 15:20:00,46.0,18.5,29.64,West,260,23.0,23.0,33,0.00,CLR,,0.00,WeatherDisplay:10.37,2013-03-22 19:20:00,
2013-03-22 15:25:00,46.4,18.8,29.64,WNW,290,19.6,19.6,33,0.00,CLR,,0.00,WeatherDisplay:10.37,2013-03-22 19:25:00,
2013-03-22 15:30:00,46.6,19.0,29.64,WNW,290,19.6,19.6,33,0.00,CLR,,0.00,WeatherDisplay:10.37,2013-03-22 19:30:00,
2013-03-22 15:35:00,47.1,19.5,29.64,WNW,290,19.6,19.6,33,0.00,CLR,,0.00,WeatherDisplay:10.37,2013-03-22 19:35:00,
2013-03-22 15:40:00,47.1,19.5,29.64,WNW,290,19.6,19.6,33,0.00,CLR,,0.00,WeatherDisplay:10.37,2013-03-22 19:40:00,
2013-03-22 15:45:00,47.1,19.5,29.64,SW,230,8.1,8.1,33,0.00,CLR,,0.00,WeatherDisplay:10.37,2013-03-22 19:45:00,
2013-03-22 15:50:00,47.1,19.5,29.64,SW,230,8.1,8.1,33,0.00,CLR,,0.00,WeatherDisplay:10.37,2013-03-22 19:50:00,
2013-03-22 15:55:00,47.5,19.8,29.64,SW,230,8.1,8.1,33,0.00,CLR,,0.00,WeatherDisplay:10.37,2013-03-22 19:55:00,
2013-03-22 16:00:00,47.1,20.2,29.64,SW,230,8.1,8.1,34,0.00,CLR,,0.00,WeatherDisplay:10.37,2013-03-22 20:00:00,
2013-03-22 16:05:00,47.3,19.6,29.63,West,280,9.2,9.2,33,0.00,CLR,,0.00,WeatherDisplay:10.37,2013-03-22 20:05:00,
2013-03-22 16:10:00,47.1,19.5,29.64,West,280,9.2,9.2,33,0.00,CLR,,0.00,WeatherDisplay:10.37,2013-03-22 20:10:00,
2013-03-22 16:15:00,47.3,19.6,29.64,West,280,9.2,9.2,33,0.00,CLR,,0.00,WeatherDisplay:10.37,2013-03-22 20:15:00,
2013-03-22 16:20:00,47.1,19.5,29.64,West,280,9.2,9.2,33,0.00,CLR,,0.00,WeatherDisplay:10.37,2013-03-22 20:20:00,
2013-03-22 16:25:00,46.8,19.1,29.64,West,280,9.2,9.2,33,0.00,CLR,,0.00,WeatherDisplay:10.37,2013-03-22 20:25:00,
2013-03-22 16:30:00,46.9,19.3,29.64,West,280,9.2,9.2,33,0.00,CLR,,0.00,WeatherDisplay:10.37,2013-03-22 20:30:00,
2013-03-22 16:35:00,46.6,19.0,29.64,West,280,9.2,9.2,33,0.00,CLR,,0.00,WeatherDisplay:10.37,2013-03-22 20:35:00,
2013-03-22 16:40:00,46.8,19.8,29.64,West,280,9.2,9.2,34,0.00,CLR,,0.00,WeatherDisplay:10.37,2013-03-22 20:40:00,
2013-03-22 16:45:00,46.8,19.8,29.64,WNW,290,18.4,18.4,34,0.00,CLR,,0.00,WeatherDisplay:10.37,2013-03-22 20:45:00,
2013-03-22 16:50:00,46.8,19.1,29.64,WNW,290,18.4,18.4,33,0.00,CLR,,0.00,WeatherDisplay:10.37,2013-03-22 20:50:00,
2013-03-22 16:55:00,46.8,19.8,29.65,West,280,8.1,8.1,34,0.00,CLR,,0.00,WeatherDisplay:10.37,2013-03-22 20:55:00,
2013-03-22 17:00:00,46.8,19.8,29.65,West,280,8.1,8.1,34,0.00,CLR,,0.00,WeatherDisplay:10.37,2013-03-22 21:00:00,
2013-03-22 17:05:00,46.9,20.0,29.65,West,270,9.2,9.2,34,0.00,CLR,,0.00,WeatherDisplay:10.37,2013-03-22 21:05:00,
2013-03-22 17:10:00,46.9,20.0,29.65,West,270,9.2,9.2,34,0.00,CLR,,0.00,WeatherDisplay:10.37,2013-03-22 21:10:00,
2013-03-22 17:15:00,46.8,19.8,29.65,West,270,9.2,9.2,34,0.00,CLR,,0.00,WeatherDisplay:10.37,2013-03-22 21:15:00,
2013-03-22 17:20:00,46.6,19.7,29.65,West,270,9.2,9.2,34,0.00,CLR,,0.00,WeatherDisplay:10.37,2013-03-22 21:20:00,
2013-03-22 17:25:00,46.6,19.7,29.66,West,260,6.9,6.9,34,0.00,CLR,,0.00,WeatherDisplay:10.37,2013-03-22 21:25:00,
2013-03-22 17:30:00,46.2,19.4,29.66,West,260,6.9,6.9,34,0.00,CLR,,0.00,WeatherDisplay:10.37,2013-03-22 21:30:00,
2013-03-22 17:36:00,46.0,19.2,29.66,West,260,6.9,6.9,34,0.00,CLR,,0.00,WeatherDisplay:10.37,2013-03-22 21:36:00,
2013-03-22 17:41:00,46.0,19.2,29.66,West,260,6.9,6.9,34,0.00,CLR,,0.00,WeatherDisplay:10.37,2013-03-22 21:41:00,
2013-03-22 17:46:00,46.0,19.9,29.66,West,260,6.9,6.9,35,0.00,CLR,,0.00,WeatherDisplay:10.37,2013-03-22 21:46:00,
2013-03-22 17:51:00,45.7,18.9,29.66,West,260,6.9,6.9,34,0.00,CLR,,0.00,WeatherDisplay:10.37,2013-03-22 21:51:00,
2013-03-22 17:56:00,45.7,18.9,29.66,WNW,300,9.2,9.2,34,0.00,CLR,,0.00,WeatherDisplay:10.37,2013-03-22 21:56:00,
2013-03-22 18:01:00,45.1,19.1,29.67,WNW,300,9.2,9.2,35,0.00,CLR,,0.00,WeatherDisplay:10.37,2013-03-22 22:01:00,
2013-03-22 18:06:00,45.0,18.9,29.67,WNW,300,9.2,9.2,35,0.00,CLR,,0.00,WeatherDisplay:10.37,2013-03-22 22:06:00,
2013-03-22 18:11:00,44.8,18.8,29.67,WNW,300,9.2,9.2,35,0.00,CLR,,0.00,WeatherDisplay:10.37,2013-03-22 22:11:00,
2013-03-22 18:16:00,44.4,18.4,29.67,NW,320,10.4,10.4,35,0.00,CLR,,0.00,WeatherDisplay:10.37,2013-03-22 22:16:00,
2013-03-22 18:21:00,44.4,19.1,29.67,NW,320,10.4,10.4,36,0.00,CLR,,0.00,WeatherDisplay:10.37,2013-03-22 22:21:00,
2013-03-22 18:26:00,44.2,18.3,29.67,NW,320,10.4,10.4,35,0.00,CLR,,0.00,WeatherDisplay:10.37,2013-03-22 22:26:00,
2013-03-22 18:31:00,43.9,18.6,29.67,NW,320,10.4,10.4,36,0.00,CLR,,0.00,WeatherDisplay:10.37,2013-03-22 22:31:00,
2013-03-22 18:36:00,43.5,18.3,29.67,NW,310,8.1,8.1,36,0.00,CLR,,0.00,WeatherDisplay:10.37,2013-03-22 22:36:00,
2013-03-22 18:41:00,43.5,18.3,29.68,NW,310,8.1,8.1,36,0.00,CLR,,0.00,WeatherDisplay:10.37,2013-03-22 22:41:00,
2013-03-22 18:46:00,43.3,18.1,29.68,NW,320,4.6,4.6,36,0.00,CLR,,0.00,WeatherDisplay:10.37,2013-03-22 22:46:00,
2013-03-22 18:51:00,43.2,18.0,29.68,NW,320,4.6,4.6,36,0.00,CLR,,0.00,WeatherDisplay:10.37,2013-03-22 22:51:00,
2013-03-22 18:56:00,42.8,18.3,29.68,NW,320,4.6,4.6,37,0.00,CLR,,0.00,WeatherDisplay:10.37,2013-03-22 22:56:00,
2013-03-22 19:01:00,42.6,18.1,29.68,NW,320,4.6,4.6,37,0.00,CLR,,0.00,WeatherDisplay:10.37,2013-03-22 23:01:00,
2013-03-22 19:06:00,42.4,18.0,29.68,NW,320,6.9,6.9,37,0.00,CLR,,0.00,WeatherDisplay:10.37,2013-03-22 23:06:00,
2013-03-22 19:11:00,42.1,17.6,29.68,NW,320,6.9,6.9,37,0.00,CLR,,0.00,WeatherDisplay:10.37,2013-03-22 23:11:00,
2013-03-22 19:16:00,42.1,17.6,29.69,NW,320,6.9,6.9,37,0.00,CLR,,0.00,WeatherDisplay:10.37,2013-03-22 23:16:00,
2013-03-22 19:21:00,41.9,17.5,29.69,NW,320,6.9,6.9,37,0.00,CLR,,0.00,WeatherDisplay:10.37,2013-03-22 23:21:00,
2013-03-22 19:26:00,41.9,18.1,29.69,NNW,330,6.9,6.9,38,0.00,CLR,,0.00,WeatherDisplay:10.37,2013-03-22 23:26:00,
2013-03-22 19:31:00,41.5,17.8,29.69,NNW,330,6.9,6.9,38,0.00,CLR,,0.00,WeatherDisplay:10.37,2013-03-22 23:31:00,
2013-03-22 19:36:00,41.2,17.5,29.69,NNW,330,6.9,6.9,38,0.00,CLR,,0.00,WeatherDisplay:10.37,2013-03-22 23:36:00,
2013-03-22 19:41:00,41.0,17.3,29.69,NNW,330,6.9,6.9,38,0.00,CLR,,0.00,WeatherDisplay:10.37,2013-03-22 23:41:00,
2013-03-22 19:46:00,40.8,17.7,29.70,NNW,330,6.9,6.9,39,0.00,CLR,,0.00,WeatherDisplay:10.37,2013-03-22 23:46:00,
2013-03-22 19:51:00,40.8,17.7,29.70,NNW,330,6.9,6.9,39,0.00,CLR,,0.00,WeatherDisplay:10.37,2013-03-22 23:51:00,
2013-03-22 19:56:00,40.3,17.3,29.70,NW,320,4.6,4.6,39,0.00,CLR,,0.00,WeatherDisplay:10.37,2013-03-22 23:56:00,
2013-03-22 20:01:00,40.3,17.3,29.70,NW,320,4.6,4.6,39,0.00,CLR,,0.00,WeatherDisplay:10.37,2013-03-23 00:01:00,
2013-03-22 20:06:00,40.1,17.1,29.71,NW,310,4.6,4.6,39,0.00,CLR,,0.00,WeatherDisplay:10.37,2013-03-23 00:06:00,
2013-03-22 20:11:00,39.9,16.9,29.71,NW,310,4.6,4.6,39,0.00,CLR,,0.00,WeatherDisplay:10.37,2013-03-23 00:11:00,
2013-03-22 20:16:00,39.9,16.9,29.71,NW,310,4.6,4.6,39,0.00,CLR,,0.00,WeatherDisplay:10.37,2013-03-23 00:16:00,
2013-03-22 20:21:00,39.7,16.8,29.71,NW,310,4.6,4.6,39,0.00,CLR,,0.00,WeatherDisplay:10.37,2013-03-23 00:21:00,
2013-03-22 20:26:00,39.6,17.2,29.72,NW,310,0.0,0.0,40,0.00,CLR,,0.00,WeatherDisplay:10.37,2013-03-23 00:26:00,
2013-03-22 20:31:00,39.4,17.0,29.72,NW,310,0.0,0.0,40,0.00,CLR,,0.00,WeatherDisplay:10.37,2013-03-23 00:31:00,
2013-03-22 20:36:00,39.4,17.0,29.72,NW,310,0.0,0.0,40,0.00,CLR,,0.00,WeatherDisplay:10.37,2013-03-23 00:36:00,
2013-03-22 20:41:00,39.4,17.0,29.72,NW,310,0.0,0.0,40,0.00,CLR,,0.00,WeatherDisplay:10.37,2013-03-23 00:41:00,
2013-03-22 20:46:00,39.0,16.7,29.72,NW,310,0.0,0.0,40,0.00,CLR,,0.00,WeatherDisplay:10.37,2013-03-23 00:46:00,
2013-03-22 20:51:00,39.0,17.3,29.72,NW,310,0.0,0.0,41,0.00,CLR,,0.00,WeatherDisplay:10.37,2013-03-23 00:51:00,
2013-03-22 20:56:00,39.0,17.3,29.72,NW,310,0.0,0.0,41,0.00,CLR,,0.00,WeatherDisplay:10.37,2013-03-23 00:56:00,
2013-03-22 21:01:00,38.8,17.1,29.72,NW,310,0.0,0.0,41,0.00,CLR,,0.00,WeatherDisplay:10.37,2013-03-23 01:01:00,
2013-03-22 21:06:00,38.8,17.1,29.72,NW,310,0.0,0.0,41,0.00,CLR,,0.00,WeatherDisplay:10.37,2013-03-23 01:06:00,
2013-03-22 21:11:00,38.5,16.8,29.72,NW,310,0.0,0.0,41,0.00,CLR,,0.00,WeatherDisplay:10.37,2013-03-23 01:11:00,
2013-03-22 21:16:00,38.5,16.8,29.72,NW,310,6.9,6.9,41,0.00,CLR,,0.00,WeatherDisplay:10.37,2013-03-23 01:16:00,
2013-03-22 21:21:00,38.3,16.6,29.72,NW,310,6.9,6.9,41,0.00,CLR,,0.00,WeatherDisplay:10.37,2013-03-23 01:21:00,
2013-03-22 21:26:00,38.1,16.5,29.73,NW,310,0.0,0.0,41,0.00,CLR,,0.00,WeatherDisplay:10.37,2013-03-23 01:26:00,
2013-03-22 21:31:00,38.1,16.5,29.74,NW,310,0.0,0.0,41,0.00,CLR,,0.00,WeatherDisplay:10.37,2013-03-23 01:31:00,
2013-03-22 21:36:00,37.9,16.3,29.74,NW,310,0.0,0.0,41,0.00,CLR,,0.00,WeatherDisplay:10.37,2013-03-23 01:36:00,
2013-03-22 21:41:00,37.9,16.3,29.74,NW,310,0.0,0.0,41,0.00,CLR,,0.00,WeatherDisplay:10.37,2013-03-23 01:41:00,
2013-03-22 21:46:00,37.8,16.7,29.74,NW,310,0.0,0.0,42,0.00,CLR,,0.00,WeatherDisplay:10.37,2013-03-23 01:46:00,
2013-03-22 21:51:00,37.8,16.7,29.74,NW,310,0.0,0.0,42,0.00,CLR,,0.00,WeatherDisplay:10.37,2013-03-23 01:51:00,
2013-03-22 21:56:00,37.6,16.5,29.74,NW,310,0.0,0.0,42,0.00,CLR,,0.00,WeatherDisplay:10.37,2013-03-23 01:56:00,
2013-03-22 22:01:00,37.6,16.5,29.74,NW,310,0.0,0.0,42,0.00,CLR,,0.00,WeatherDisplay:10.37,2013-03-23 02:01:00,
2013-03-22 22:06:00,37.4,16.4,29.74,NW,310,0.0,0.0,42,0.00,CLR,,0.00,WeatherDisplay:10.37,2013-03-23 02:06:00,
2013-03-22 22:11:00,37.2,16.2,29.74,NW,310,0.0,0.0,42,0.00,CLR,,0.00,WeatherDisplay:10.37,2013-03-23 02:11:00,
2013-03-22 22:16:00,37.2,16.2,29.74,NW,310,3.5,3.5,42,0.00,CLR,,0.00,WeatherDisplay:10.37,2013-03-23 02:16:00,
2013-03-22 22:21:00,37.6,16.5,29.75,NW,310,3.5,3.5,42,0.00,CLR,,0.00,WeatherDisplay:10.37,2013-03-23 02:21:00,
2013-03-22 22:26:00,37.6,16.5,29.75,NW,310,3.5,3.5,42,0.00,CLR,,0.00,WeatherDisplay:10.37,2013-03-23 02:26:00,
2013-03-22 22:31:00,37.2,16.2,29.75,WNW,300,3.5,6.9,42,0.00,CLR,,0.00,WeatherDisplay:10.37,2013-03-23 02:31:00,
2013-03-22 22:36:00,37.2,16.2,29.75,WNW,300,6.9,6.9,42,0.00,CLR,,0.00,WeatherDisplay:10.37,2013-03-23 02:36:00,
2013-03-22 22:41:00,37.2,16.2,29.75,WNW,300,6.9,6.9,42,0.00,CLR,,0.00,WeatherDisplay:10.37,2013-03-23 02:41:00,
2013-03-22 22:46:00,37.2,16.2,29.75,WNW,300,6.9,6.9,42,0.00,CLR,,0.00,WeatherDisplay:10.37,2013-03-23 02:46:00,
2013-03-22 22:51:00,37.0,16.0,29.76,WNW,300,6.9,6.9,42,0.00,CLR,,0.00,WeatherDisplay:10.37,2013-03-23 02:51:00,
2013-03-22 22:56:00,36.9,15.9,29.76,West,280,4.6,4.6,42,0.00,CLR,,0.00,WeatherDisplay:10.37,2013-03-23 02:56:00,
2013-03-22 23:01:00,36.7,15.7,29.76,West,280,4.6,4.6,42,0.00,CLR,,0.00,WeatherDisplay:10.37,2013-03-23 03:01:00,
2013-03-22 23:06:00,36.7,16.3,29.76,West,280,4.6,4.6,43,0.00,CLR,,0.00,WeatherDisplay:10.37,2013-03-23 03:06:00,
2013-03-22 23:11:00,36.7,16.3,29.76,West,280,4.6,4.6,43,0.00,CLR,,0.00,WeatherDisplay:10.37,2013-03-23 03:11:00,
2013-03-22 23:16:00,36.7,15.7,29.76,WNW,290,5.8,5.8,42,0.00,CLR,,0.00,WeatherDisplay:10.37,2013-03-23 03:16:00,
2013-03-22 23:21:00,36.7,15.7,29.76,WNW,290,5.8,5.8,42,0.00,CLR,,0.00,WeatherDisplay:10.37,2013-03-23 03:21:00,
2013-03-22 23:26:00,36.7,15.7,29.76,WNW,290,0.0,0.0,42,0.00,CLR,,0.00,WeatherDisplay:10.37,2013-03-23 03:26:00,
2013-03-22 23:31:00,36.7,15.7,29.76,WNW,290,0.0,0.0,42,0.00,CLR,,0.00,WeatherDisplay:10.37,2013-03-23 03:31:00,
2013-03-22 23:36:00,36.5,15.6,29.76,WNW,290,0.0,0.0,42,0.00,CLR,,0.00,WeatherDisplay:10.37,2013-03-23 03:36:00,
2013-03-22 23:41:00,36.5,15.6,29.76,WNW,290,0.0,0.0,42,0.00,CLR,,0.00,WeatherDisplay:10.37,2013-03-23 03:41:00,
2013-03-22 23:46:00,36.7,15.7,29.76,WNW,290,0.0,0.0,42,0.00,CLR,,0.00,WeatherDisplay:10.37,2013-03-23 03:46:00,
2013-03-22 23:51:00,36.5,15.6,29.76,WNW,290,0.0,0.0,42,0.00,CLR,,0.00,WeatherDisplay:10.37,2013-03-23 03:51:00,
2013-03-22 23:56:00,36.5,15.6,29.76,WNW,290,0.0,0.0,42,0.00,CLR,,0.00,WeatherDisplay:10.37,2013-03-23 03:56:00,